owner,sensor,date,latitude,longitude,vertical_datum,sea_water_practical_salinity,qcFlag 
SCCF RECON,ioos:station:SCCF:51:1,2012-01-01T00:00:00Z,26.5545,-82.1715,2.11,33.87,1111122 
SCCF RECON,ioos:station:SCCF:51:1,2012-01-01T01:00:00Z,26.5545,-82.1715,2.07,33.82,1111122 
SCCF RECON,ioos:station:SCCF:51:1,2012-01-01T02:00:00Z,26.5545,-82.1715,2.01,33.82,1111122 
SCCF RECON,ioos:station:SCCF:51:1,2012-01-01T03:00:00Z,26.5545,-82.1715,1.95,33.84,1111122 
SCCF RECON,ioos:station:SCCF:51:1,2012-01-01T04:00:00Z,26.5545,-82.1715,1.89,33.63,1111122 
SCCF RECON,ioos:station:SCCF:51:1,2012-01-01T05:00:00Z,26.5545,-82.1715,1.84,33.72,1111122 
SCCF RECON,ioos:station:SCCF:51:1,2012-01-01T06:00:00Z,26.5545,-82.1715,1.801,33.73,1111122 
SCCF RECON,ioos:station:SCCF:51:1,2012-01-01T07:00:00Z,26.5545,-82.1715,1.81,33.85,1111122 
SCCF RECON,ioos:station:SCCF:51:1,2012-01-01T08:00:00Z,26.5545,-82.1715,1.85,33.84,1111122 
SCCF RECON,ioos:station:SCCF:51:1,2012-01-01T09:00:00Z,26.5545,-82.1715,1.899,33.89,1111122 
SCCF RECON,ioos:station:SCCF:51:1,2012-01-01T10:00:00Z,26.5545,-82.1715,1.957,33.79,1111122 
SCCF RECON,ioos:station:SCCF:51:1,2012-01-01T11:00:00Z,26.5545,-82.1715,1.975,33.76,1111122 
SCCF RECON,ioos:station:SCCF:51:1,2012-01-01T12:00:00Z,26.5545,-82.1715,1.969,33.87,1111122 
SCCF RECON,ioos:station:SCCF:51:1,2012-01-01T13:00:00Z,26.5545,-82.1715,1.94,33.66,1111122 
SCCF RECON,ioos:station:SCCF:51:1,2012-01-01T14:00:00Z,26.5545,-82.1715,1.922,33.52,1111122 
SCCF RECON,ioos:station:SCCF:51:1,2012-01-01T15:00:00Z,26.5545,-82.1715,1.891,33.42,1111122 
SCCF RECON,ioos:station:SCCF:51:1,2012-01-01T16:00:00Z,26.5545,-82.1715,1.861,33.4,1111122 
SCCF RECON,ioos:station:SCCF:51:1,2012-01-01T17:00:00Z,26.5545,-82.1715,1.852,33.47,1111122 
SCCF RECON,ioos:station:SCCF:51:1,2012-01-01T18:00:00Z,26.5545,-82.1715,1.86,33.59,1111122 
SCCF RECON,ioos:station:SCCF:51:1,2012-01-01T19:00:00Z,26.5545,-82.1715,1.874,33.55,1111122 
SCCF RECON,ioos:station:SCCF:51:1,2012-01-01T20:00:00Z,26.5545,-82.1715,1.918,33.42,1111122 
SCCF RECON,ioos:station:SCCF:51:1,2012-01-01T21:00:00Z,26.5545,-82.1715,1.981,33.81,1111122 
SCCF RECON,ioos:station:SCCF:51:1,2012-01-01T22:00:00Z,26.5545,-82.1715,2.05,34.12,1111122 
SCCF RECON,ioos:station:SCCF:51:1,2012-01-01T23:00:00Z,26.5545,-82.1715,2.093,34.17,1111122 
SCCF RECON,ioos:station:SCCF:51:1,2012-01-02T00:00:00Z,26.5545,-82.1715,2.11,34.08,1111122 
SCCF RECON,ioos:station:SCCF:51:1,2012-01-02T01:00:00Z,26.5545,-82.1715,2.079,33.83,1111122 
SCCF RECON,ioos:station:SCCF:51:1,2012-01-02T02:00:00Z,26.5545,-82.1715,2.01,33.74,1111122 
SCCF RECON,ioos:station:SCCF:51:1,2012-01-02T03:00:00Z,26.5545,-82.1715,1.94,33.58,1111122 
SCCF RECON,ioos:station:SCCF:51:1,2012-01-02T04:00:00Z,26.5545,-82.1715,1.86,33.49,1111122 
SCCF RECON,ioos:station:SCCF:51:1,2012-01-02T05:00:00Z,26.5545,-82.1715,1.78,33.52,1111122 
SCCF RECON,ioos:station:SCCF:51:1,2012-01-02T06:00:00Z,26.5545,-82.1715,1.72,33.55,1111122 
SCCF RECON,ioos:station:SCCF:51:1,2012-01-02T07:00:00Z,26.5545,-82.1715,1.67,33.58,1111122 
SCCF RECON,ioos:station:SCCF:51:1,2012-01-02T08:00:00Z,26.5545,-82.1715,1.65,33.66,1111122 
SCCF RECON,ioos:station:SCCF:51:1,2012-01-02T09:00:00Z,26.5545,-82.1715,1.7,33.75,1111122 
SCCF RECON,ioos:station:SCCF:51:1,2012-01-02T10:00:00Z,26.5545,-82.1715,1.757,33.79,1111122 
SCCF RECON,ioos:station:SCCF:51:1,2012-01-02T11:00:00Z,26.5545,-82.1715,1.835,33.72,1111122 
SCCF RECON,ioos:station:SCCF:51:1,2012-01-02T12:00:00Z,26.5545,-82.1715,1.87,33.82,1111122 
SCCF RECON,ioos:station:SCCF:51:1,2012-01-02T13:00:00Z,26.5545,-82.1715,1.89,33.8,1111122 
SCCF RECON,ioos:station:SCCF:51:1,2012-01-02T14:00:00Z,26.5545,-82.1715,1.869,33.75,1111122 
SCCF RECON,ioos:station:SCCF:51:1,2012-01-02T15:00:00Z,26.5545,-82.1715,1.889,33.77,1111122 
SCCF RECON,ioos:station:SCCF:51:1,2012-01-02T16:00:00Z,26.5545,-82.1715,1.874,33.75,1111122 
SCCF RECON,ioos:station:SCCF:51:1,2012-01-02T17:00:00Z,26.5545,-82.1715,1.903,33.8,1111122 
SCCF RECON,ioos:station:SCCF:51:1,2012-01-02T18:00:00Z,26.5545,-82.1715,1.913,33.95,1111122 
SCCF RECON,ioos:station:SCCF:51:1,2012-01-02T19:00:00Z,26.5545,-82.1715,1.874,33.95,1111122 
SCCF RECON,ioos:station:SCCF:51:1,2012-01-02T20:00:00Z,26.5545,-82.1715,1.879,33.97,1111122 
SCCF RECON,ioos:station:SCCF:51:1,2012-01-02T21:00:00Z,26.5545,-82.1715,1.936,34.01,1111122 
SCCF RECON,ioos:station:SCCF:51:1,2012-01-02T22:00:00Z,26.5545,-82.1715,1.964,34.18,1111122 
SCCF RECON,ioos:station:SCCF:51:1,2012-01-02T23:00:00Z,26.5545,-82.1715,1.987,34.22,1111122 
SCCF RECON,ioos:station:SCCF:51:1,2012-01-03T00:00:00Z,26.5545,-82.1715,1.996,34.1,1111122 
SCCF RECON,ioos:station:SCCF:51:1,2012-01-03T01:00:00Z,26.5545,-82.1715,1.976,34.27,1111122 
SCCF RECON,ioos:station:SCCF:51:1,2012-01-03T02:00:00Z,26.5545,-82.1715,1.948,34.44,1111122 
SCCF RECON,ioos:station:SCCF:51:1,2012-01-03T03:00:00Z,26.5545,-82.1715,1.885,34.52,1111122 
SCCF RECON,ioos:station:SCCF:51:1,2012-01-03T04:00:00Z,26.5545,-82.1715,1.808,34.51,1111122 
SCCF RECON,ioos:station:SCCF:51:1,2012-01-03T05:00:00Z,26.5545,-82.1715,1.745,34.48,1111122 
SCCF RECON,ioos:station:SCCF:51:1,2012-01-03T06:00:00Z,26.5545,-82.1715,1.679,34.43,1111122 
SCCF RECON,ioos:station:SCCF:51:1,2012-01-03T07:00:00Z,26.5545,-82.1715,1.631,34.38,1111122 
SCCF RECON,ioos:station:SCCF:51:1,2012-01-03T08:00:00Z,26.5545,-82.1715,1.603,34.39,1111122 
SCCF RECON,ioos:station:SCCF:51:1,2012-01-03T09:00:00Z,26.5545,-82.1715,1.587,34.57,1111122 
SCCF RECON,ioos:station:SCCF:51:1,2012-01-03T10:00:00Z,26.5545,-82.1715,1.597,34.43,1111122 
SCCF RECON,ioos:station:SCCF:51:1,2012-01-03T11:00:00Z,26.5545,-82.1715,1.652,34.37,1111122 
SCCF RECON,ioos:station:SCCF:51:1,2012-01-03T12:00:00Z,26.5545,-82.1715,1.683,34.5,1111122 
SCCF RECON,ioos:station:SCCF:51:1,2012-01-03T13:00:00Z,26.5545,-82.1715,1.699,34.1,1111122 
SCCF RECON,ioos:station:SCCF:51:1,2012-01-03T14:00:00Z,26.5545,-82.1715,1.699,33.51,1111122 
SCCF RECON,ioos:station:SCCF:51:1,2012-01-03T15:00:00Z,26.5545,-82.1715,1.657,33.37,1111122 
SCCF RECON,ioos:station:SCCF:51:1,2012-01-03T16:00:00Z,26.5545,-82.1715,1.61,33.44,1111122 
SCCF RECON,ioos:station:SCCF:51:1,2012-01-03T17:00:00Z,26.5545,-82.1715,1.577,33.57,1111122 
SCCF RECON,ioos:station:SCCF:51:1,2012-01-03T18:00:00Z,26.5545,-82.1715,1.573,33.76,1111122 
SCCF RECON,ioos:station:SCCF:51:1,2012-01-03T19:00:00Z,26.5545,-82.1715,1.598,34.06,1111122 
SCCF RECON,ioos:station:SCCF:51:1,2012-01-03T20:00:00Z,26.5545,-82.1715,1.632,34.59,1111122 
SCCF RECON,ioos:station:SCCF:51:1,2012-01-03T21:00:00Z,26.5545,-82.1715,1.69,34.82,1111122 
SCCF RECON,ioos:station:SCCF:51:1,2012-01-03T22:00:00Z,26.5545,-82.1715,1.741,34.93,1111122 
SCCF RECON,ioos:station:SCCF:51:1,2012-01-03T23:00:00Z,26.5545,-82.1715,1.789,34.98,1111122 
SCCF RECON,ioos:station:SCCF:51:1,2012-01-04T00:00:00Z,26.5545,-82.1715,1.847,34.8,1111122 
SCCF RECON,ioos:station:SCCF:51:1,2012-01-04T01:00:00Z,26.5545,-82.1715,1.898,34.83,1111122 
SCCF RECON,ioos:station:SCCF:51:1,2012-01-04T02:00:00Z,26.5545,-82.1715,1.945,34.48,1111122 
SCCF RECON,ioos:station:SCCF:51:1,2012-01-04T03:00:00Z,26.5545,-82.1715,1.936,34.55,1111122 
SCCF RECON,ioos:station:SCCF:51:1,2012-01-04T04:00:00Z,26.5545,-82.1715,1.901,34.78,1111122 
SCCF RECON,ioos:station:SCCF:51:1,2012-01-04T05:00:00Z,26.5545,-82.1715,1.839,34.91,1111122 
SCCF RECON,ioos:station:SCCF:51:1,2012-01-04T06:00:00Z,26.5545,-82.1715,1.761,34.98,1111122 
SCCF RECON,ioos:station:SCCF:51:1,2012-01-04T07:00:00Z,26.5545,-82.1715,1.666,34.94,1111122 
SCCF RECON,ioos:station:SCCF:51:1,2012-01-04T08:00:00Z,26.5545,-82.1715,1.581,34.86,1111122 
SCCF RECON,ioos:station:SCCF:51:1,2012-01-04T09:00:00Z,26.5545,-82.1715,1.531,34.82,1111122 
SCCF RECON,ioos:station:SCCF:51:1,2012-01-04T10:00:00Z,26.5545,-82.1715,1.536,34.87,1111122 
SCCF RECON,ioos:station:SCCF:51:1,2012-01-04T11:00:00Z,26.5545,-82.1715,1.59,34.69,1111122 
SCCF RECON,ioos:station:SCCF:51:1,2012-01-04T12:00:00Z,26.5545,-82.1715,1.655,34.67,1111122 
SCCF RECON,ioos:station:SCCF:51:1,2012-01-04T13:00:00Z,26.5545,-82.1715,1.739,34.65,1111122 
SCCF RECON,ioos:station:SCCF:51:1,2012-01-04T14:00:00Z,26.5545,-82.1715,1.818,34.68,1111122 
SCCF RECON,ioos:station:SCCF:51:1,2012-01-04T15:00:00Z,26.5545,-82.1715,1.874,34.68,1111122 
SCCF RECON,ioos:station:SCCF:51:1,2012-01-04T16:00:00Z,26.5545,-82.1715,1.923,34.66,1111122 
SCCF RECON,ioos:station:SCCF:51:1,2012-01-04T17:00:00Z,26.5545,-82.1715,1.96,34.94,1111122 
SCCF RECON,ioos:station:SCCF:51:1,2012-01-04T18:00:00Z,26.5545,-82.1715,1.961,34.96,1111122 
SCCF RECON,ioos:station:SCCF:51:1,2012-01-04T19:00:00Z,26.5545,-82.1715,1.946,34.94,1111122 
SCCF RECON,ioos:station:SCCF:51:1,2012-01-04T20:00:00Z,26.5545,-82.1715,1.936,34.93,1111122 
SCCF RECON,ioos:station:SCCF:51:1,2012-01-04T21:00:00Z,26.5545,-82.1715,1.964,34.94,1111122 
SCCF RECON,ioos:station:SCCF:51:1,2012-01-04T22:00:00Z,26.5545,-82.1715,2.011,34.94,1111122 
SCCF RECON,ioos:station:SCCF:51:1,2012-01-04T23:00:00Z,26.5545,-82.1715,2.07,34.81,1111122 
SCCF RECON,ioos:station:SCCF:51:1,2012-01-05T00:00:00Z,26.5545,-82.1715,2.118,34.86,1111122 
SCCF RECON,ioos:station:SCCF:51:1,2012-01-05T01:00:00Z,26.5545,-82.1715,2.148,34.92,1111122 
SCCF RECON,ioos:station:SCCF:51:1,2012-01-05T02:00:00Z,26.5545,-82.1715,2.146,35.03,1111122 
SCCF RECON,ioos:station:SCCF:51:1,2012-01-05T03:00:00Z,26.5545,-82.1715,2.132,35.03,1111122 
SCCF RECON,ioos:station:SCCF:51:1,2012-01-05T04:00:00Z,26.5545,-82.1715,2.083,34.77,1111122 
SCCF RECON,ioos:station:SCCF:51:1,2012-01-05T05:00:00Z,26.5545,-82.1715,2.008,34.66,1111122 
SCCF RECON,ioos:station:SCCF:51:1,2012-01-05T06:00:00Z,26.5545,-82.1715,1.907,34.69,1111122 
SCCF RECON,ioos:station:SCCF:51:1,2012-01-05T07:00:00Z,26.5545,-82.1715,1.79,34.81,1111122 
SCCF RECON,ioos:station:SCCF:51:1,2012-01-05T08:00:00Z,26.5545,-82.1715,1.689,35.03,1111122 
SCCF RECON,ioos:station:SCCF:51:1,2012-01-05T09:00:00Z,26.5545,-82.1715,1.595,34.88,1111122 
SCCF RECON,ioos:station:SCCF:51:1,2012-01-05T10:00:00Z,26.5545,-82.1715,1.532,34.79,1111122 
SCCF RECON,ioos:station:SCCF:51:1,2012-01-05T11:00:00Z,26.5545,-82.1715,1.538,34.65,1111122 
SCCF RECON,ioos:station:SCCF:51:1,2012-01-05T12:00:00Z,26.5545,-82.1715,1.612,34.77,1111122 
SCCF RECON,ioos:station:SCCF:51:1,2012-01-05T13:00:00Z,26.5545,-82.1715,1.71,34.6,1111122 
SCCF RECON,ioos:station:SCCF:51:1,2012-01-05T14:00:00Z,26.5545,-82.1715,1.82,34.72,1111122 
SCCF RECON,ioos:station:SCCF:51:1,2012-01-05T15:00:00Z,26.5545,-82.1715,1.909,34.84,1111122 
SCCF RECON,ioos:station:SCCF:51:1,2012-01-05T16:00:00Z,26.5545,-82.1715,1.967,34.78,1111122 
SCCF RECON,ioos:station:SCCF:51:1,2012-01-05T17:00:00Z,26.5545,-82.1715,1.998,34.79,1111122 
SCCF RECON,ioos:station:SCCF:51:1,2012-01-05T18:00:00Z,26.5545,-82.1715,1.962,34.86,1111122 
SCCF RECON,ioos:station:SCCF:51:1,2012-01-05T19:00:00Z,26.5545,-82.1715,1.905,34.78,1111122 
SCCF RECON,ioos:station:SCCF:51:1,2012-01-05T20:00:00Z,26.5545,-82.1715,1.869,34.75,1111122 
SCCF RECON,ioos:station:SCCF:51:1,2012-01-05T21:00:00Z,26.5545,-82.1715,1.895,34.85,1111122 
SCCF RECON,ioos:station:SCCF:51:1,2012-01-05T22:00:00Z,26.5545,-82.1715,1.962,34.96,1111122 
SCCF RECON,ioos:station:SCCF:51:1,2012-01-05T23:00:00Z,26.5545,-82.1715,2.04,34.73,1111122 
SCCF RECON,ioos:station:SCCF:51:1,2012-01-06T00:00:00Z,26.5545,-82.1715,2.1,35.09,1111122 
SCCF RECON,ioos:station:SCCF:51:1,2012-01-06T01:00:00Z,26.5545,-82.1715,2.15,35.12,1111122 
SCCF RECON,ioos:station:SCCF:51:1,2012-01-06T02:00:00Z,26.5545,-82.1715,2.192,34.98,1111122 
SCCF RECON,ioos:station:SCCF:51:1,2012-01-06T03:00:00Z,26.5545,-82.1715,2.212,34.95,1111122 
SCCF RECON,ioos:station:SCCF:51:1,2012-01-06T04:00:00Z,26.5545,-82.1715,2.199,35.02,1111122 
SCCF RECON,ioos:station:SCCF:51:1,2012-01-06T05:00:00Z,26.5545,-82.1715,2.14,34.88,1111122 
SCCF RECON,ioos:station:SCCF:51:1,2012-01-06T06:00:00Z,26.5545,-82.1715,2.047,34.87,1111122 
SCCF RECON,ioos:station:SCCF:51:1,2012-01-06T07:00:00Z,26.5545,-82.1715,1.91,34.69,1111122 
SCCF RECON,ioos:station:SCCF:51:1,2012-01-06T08:00:00Z,26.5545,-82.1715,1.781,34.55,1111122 
SCCF RECON,ioos:station:SCCF:51:1,2012-01-06T09:00:00Z,26.5545,-82.1715,1.672,34.55,1111122 
SCCF RECON,ioos:station:SCCF:51:1,2012-01-06T10:00:00Z,26.5545,-82.1715,1.59,34.59,1111122 
SCCF RECON,ioos:station:SCCF:51:1,2012-01-06T11:00:00Z,26.5545,-82.1715,1.565,34.55,1111122 
SCCF RECON,ioos:station:SCCF:51:1,2012-01-06T12:00:00Z,26.5545,-82.1715,1.635,34.46,1111122 
SCCF RECON,ioos:station:SCCF:51:1,2012-01-06T13:00:00Z,26.5545,-82.1715,1.734,34.52,1111122 
SCCF RECON,ioos:station:SCCF:51:1,2012-01-06T14:00:00Z,26.5545,-82.1715,1.858,34.82,1111122 
SCCF RECON,ioos:station:SCCF:51:1,2012-01-06T15:00:00Z,26.5545,-82.1715,1.961,34.75,1111122 
SCCF RECON,ioos:station:SCCF:51:1,2012-01-06T16:00:00Z,26.5545,-82.1715,2.035,34.84,1111122 
SCCF RECON,ioos:station:SCCF:51:1,2012-01-06T17:00:00Z,26.5545,-82.1715,2.087,34.94,1111122 
SCCF RECON,ioos:station:SCCF:51:1,2012-01-06T18:00:00Z,26.5545,-82.1715,2.1,35.0,1111122 
SCCF RECON,ioos:station:SCCF:51:1,2012-01-06T19:00:00Z,26.5545,-82.1715,2.069,34.8,1111122 
SCCF RECON,ioos:station:SCCF:51:1,2012-01-06T20:00:00Z,26.5545,-82.1715,2.019,34.7,1111122 
SCCF RECON,ioos:station:SCCF:51:1,2012-01-06T21:00:00Z,26.5545,-82.1715,1.991,34.64,1111122 
SCCF RECON,ioos:station:SCCF:51:1,2012-01-06T22:00:00Z,26.5545,-82.1715,2.006,34.78,1111122 
SCCF RECON,ioos:station:SCCF:51:1,2012-01-06T23:00:00Z,26.5545,-82.1715,2.061,34.77,1111122 
SCCF RECON,ioos:station:SCCF:51:1,2012-01-07T00:00:00Z,26.5545,-82.1715,2.13,34.94,1111122 
SCCF RECON,ioos:station:SCCF:51:1,2012-01-07T01:00:00Z,26.5545,-82.1715,2.21,34.93,1111122 
SCCF RECON,ioos:station:SCCF:51:1,2012-01-07T02:00:00Z,26.5545,-82.1715,2.267,35.03,1111122 
SCCF RECON,ioos:station:SCCF:51:1,2012-01-07T03:00:00Z,26.5545,-82.1715,2.289,35.05,1111122 
SCCF RECON,ioos:station:SCCF:51:1,2012-01-07T04:00:00Z,26.5545,-82.1715,2.28,35.06,1111122 
SCCF RECON,ioos:station:SCCF:51:1,2012-01-07T05:00:00Z,26.5545,-82.1715,2.223,34.95,1111122 
SCCF RECON,ioos:station:SCCF:51:1,2012-01-07T06:00:00Z,26.5545,-82.1715,2.14,34.93,1111122 
SCCF RECON,ioos:station:SCCF:51:1,2012-01-07T07:00:00Z,26.5545,-82.1715,2.01,34.61,1111122 
SCCF RECON,ioos:station:SCCF:51:1,2012-01-07T08:00:00Z,26.5545,-82.1715,1.86,34.5,1111122 
SCCF RECON,ioos:station:SCCF:51:1,2012-01-07T09:00:00Z,26.5545,-82.1715,1.73,34.4,1111122 
SCCF RECON,ioos:station:SCCF:51:1,2012-01-07T10:00:00Z,26.5545,-82.1715,1.61,34.29,1111122 
SCCF RECON,ioos:station:SCCF:51:1,2012-01-07T11:00:00Z,26.5545,-82.1715,1.51,34.23,1111122 
SCCF RECON,ioos:station:SCCF:51:1,2012-01-07T12:00:00Z,26.5545,-82.1715,1.478,34.24,1111122 
SCCF RECON,ioos:station:SCCF:51:1,2012-01-07T13:00:00Z,26.5545,-82.1715,1.55,34.29,1111122 
SCCF RECON,ioos:station:SCCF:51:1,2012-01-07T14:00:00Z,26.5545,-82.1715,1.671,34.43,1111122 
SCCF RECON,ioos:station:SCCF:51:1,2012-01-07T15:00:00Z,26.5545,-82.1715,1.81,34.81,1111122 
SCCF RECON,ioos:station:SCCF:51:1,2012-01-07T16:00:00Z,26.5545,-82.1715,1.907,34.66,1111122 
SCCF RECON,ioos:station:SCCF:51:1,2012-01-07T17:00:00Z,26.5545,-82.1715,1.972,34.93,1111122 
SCCF RECON,ioos:station:SCCF:51:1,2012-01-07T18:00:00Z,26.5545,-82.1715,2.01,34.94,1111122 
SCCF RECON,ioos:station:SCCF:51:1,2012-01-07T19:00:00Z,26.5545,-82.1715,1.998,34.83,1111122 
SCCF RECON,ioos:station:SCCF:51:1,2012-01-07T20:00:00Z,26.5545,-82.1715,1.97,34.53,1111122 
SCCF RECON,ioos:station:SCCF:51:1,2012-01-07T21:00:00Z,26.5545,-82.1715,1.949,34.48,1111122 
SCCF RECON,ioos:station:SCCF:51:1,2012-01-07T22:00:00Z,26.5545,-82.1715,1.955,34.59,1111122 
SCCF RECON,ioos:station:SCCF:51:1,2012-01-07T23:00:00Z,26.5545,-82.1715,2.002,34.62,1111122 
SCCF RECON,ioos:station:SCCF:51:1,2012-01-08T00:00:00Z,26.5545,-82.1715,2.069,34.67,1111122 
SCCF RECON,ioos:station:SCCF:51:1,2012-01-08T01:00:00Z,26.5545,-82.1715,2.15,34.83,1111122 
SCCF RECON,ioos:station:SCCF:51:1,2012-01-08T02:00:00Z,26.5545,-82.1715,2.24,35.01,1111122 
SCCF RECON,ioos:station:SCCF:51:1,2012-01-08T03:00:00Z,26.5545,-82.1715,2.32,35.02,1111122 
SCCF RECON,ioos:station:SCCF:51:1,2012-01-08T04:00:00Z,26.5545,-82.1715,2.368,35.02,1111122 
SCCF RECON,ioos:station:SCCF:51:1,2012-01-08T05:00:00Z,26.5545,-82.1715,2.34,35.03,1111122 
SCCF RECON,ioos:station:SCCF:51:1,2012-01-08T06:00:00Z,26.5545,-82.1715,2.27,34.99,1111122 
SCCF RECON,ioos:station:SCCF:51:1,2012-01-08T07:00:00Z,26.5545,-82.1715,2.161,34.76,1111122 
SCCF RECON,ioos:station:SCCF:51:1,2012-01-08T08:00:00Z,26.5545,-82.1715,2.03,34.61,1111122 
SCCF RECON,ioos:station:SCCF:51:1,2012-01-08T09:00:00Z,26.5545,-82.1715,1.889,34.31,1111122 
SCCF RECON,ioos:station:SCCF:51:1,2012-01-08T10:00:00Z,26.5545,-82.1715,1.76,34.17,1111122 
SCCF RECON,ioos:station:SCCF:51:1,2012-01-08T11:00:00Z,26.5545,-82.1715,1.642,34.07,1111122 
SCCF RECON,ioos:station:SCCF:51:1,2012-01-08T12:00:00Z,26.5545,-82.1715,1.562,34.05,1111122 
SCCF RECON,ioos:station:SCCF:51:1,2012-01-08T13:00:00Z,26.5545,-82.1715,1.564,34.05,1111122 
SCCF RECON,ioos:station:SCCF:51:1,2012-01-08T14:00:00Z,26.5545,-82.1715,1.662,34.13,1111122 
SCCF RECON,ioos:station:SCCF:51:1,2012-01-08T15:00:00Z,26.5545,-82.1715,1.8,34.3,1111122 
SCCF RECON,ioos:station:SCCF:51:1,2012-01-08T16:00:00Z,26.5545,-82.1715,1.933,34.7,1111122 
SCCF RECON,ioos:station:SCCF:51:1,2012-01-08T17:00:00Z,26.5545,-82.1715,2.018,34.54,1111122 
SCCF RECON,ioos:station:SCCF:51:1,2012-01-08T18:00:00Z,26.5545,-82.1715,2.05,34.8,1111122 
SCCF RECON,ioos:station:SCCF:51:1,2012-01-08T19:00:00Z,26.5545,-82.1715,2.037,34.7,1111122 
SCCF RECON,ioos:station:SCCF:51:1,2012-01-08T20:00:00Z,26.5545,-82.1715,1.989,34.39,1111122 
SCCF RECON,ioos:station:SCCF:51:1,2012-01-08T21:00:00Z,26.5545,-82.1715,1.941,34.16,1111122 
SCCF RECON,ioos:station:SCCF:51:1,2012-01-08T22:00:00Z,26.5545,-82.1715,1.91,34.13,1111122 
SCCF RECON,ioos:station:SCCF:51:1,2012-01-08T23:00:00Z,26.5545,-82.1715,1.905,34.18,1111122 
SCCF RECON,ioos:station:SCCF:51:1,2012-01-09T00:00:00Z,26.5545,-82.1715,1.95,34.19,1111122 
SCCF RECON,ioos:station:SCCF:51:1,2012-01-09T01:00:00Z,26.5545,-82.1715,2.02,34.28,1111122 
SCCF RECON,ioos:station:SCCF:51:1,2012-01-09T02:00:00Z,26.5545,-82.1715,2.1,34.69,1111122 
SCCF RECON,ioos:station:SCCF:51:1,2012-01-09T03:00:00Z,26.5545,-82.1715,2.191,34.89,1111122 
SCCF RECON,ioos:station:SCCF:51:1,2012-01-09T04:00:00Z,26.5545,-82.1715,2.27,34.86,1111122 
SCCF RECON,ioos:station:SCCF:51:1,2012-01-09T05:00:00Z,26.5545,-82.1715,2.3,34.86,1111122 
SCCF RECON,ioos:station:SCCF:51:1,2012-01-09T06:00:00Z,26.5545,-82.1715,2.24,34.88,1111122 
SCCF RECON,ioos:station:SCCF:51:1,2012-01-09T07:00:00Z,26.5545,-82.1715,2.15,34.76,1111122 
SCCF RECON,ioos:station:SCCF:51:1,2012-01-09T08:00:00Z,26.5545,-82.1715,2.03,34.31,1111122 
SCCF RECON,ioos:station:SCCF:51:1,2012-01-09T09:00:00Z,26.5545,-82.1715,1.89,34.07,1111122 
SCCF RECON,ioos:station:SCCF:51:1,2012-01-09T10:00:00Z,26.5545,-82.1715,1.75,33.97,1111122 
SCCF RECON,ioos:station:SCCF:51:1,2012-01-09T11:00:00Z,26.5545,-82.1715,1.625,33.92,1111122 
SCCF RECON,ioos:station:SCCF:51:1,2012-01-09T12:00:00Z,26.5545,-82.1715,1.52,33.92,1111122 
SCCF RECON,ioos:station:SCCF:51:1,2012-01-09T13:00:00Z,26.5545,-82.1715,1.47,33.93,1111122 
SCCF RECON,ioos:station:SCCF:51:1,2012-01-09T14:00:00Z,26.5545,-82.1715,1.542,33.97,1111122 
SCCF RECON,ioos:station:SCCF:51:1,2012-01-09T15:00:00Z,26.5545,-82.1715,1.67,34.02,1111122 
SCCF RECON,ioos:station:SCCF:51:1,2012-01-09T16:00:00Z,26.5545,-82.1715,1.82,34.54,1111122 
SCCF RECON,ioos:station:SCCF:51:1,2012-01-09T17:00:00Z,26.5545,-82.1715,1.939,34.71,1111122 
SCCF RECON,ioos:station:SCCF:51:1,2012-01-09T18:00:00Z,26.5545,-82.1715,2.011,34.53,1111122 
SCCF RECON,ioos:station:SCCF:51:1,2012-01-09T19:00:00Z,26.5545,-82.1715,2.03,34.66,1111122 
SCCF RECON,ioos:station:SCCF:51:1,2012-01-09T20:00:00Z,26.5545,-82.1715,1.996,34.57,1111122 
SCCF RECON,ioos:station:SCCF:51:1,2012-01-09T21:00:00Z,26.5545,-82.1715,1.949,34.42,1111122 
SCCF RECON,ioos:station:SCCF:51:1,2012-01-09T22:00:00Z,26.5545,-82.1715,1.908,34.16,1111122 
SCCF RECON,ioos:station:SCCF:51:1,2012-01-09T23:00:00Z,26.5545,-82.1715,1.91,34.25,1111122 
SCCF RECON,ioos:station:SCCF:51:1,2012-01-10T00:00:00Z,26.5545,-82.1715,1.938,34.32,1111122 
SCCF RECON,ioos:station:SCCF:51:1,2012-01-10T01:00:00Z,26.5545,-82.1715,1.99,34.47,1111122 
SCCF RECON,ioos:station:SCCF:51:1,2012-01-10T02:00:00Z,26.5545,-82.1715,2.08,34.61,1111122 
SCCF RECON,ioos:station:SCCF:51:1,2012-01-10T03:00:00Z,26.5545,-82.1715,2.18,34.79,1111122 
SCCF RECON,ioos:station:SCCF:51:1,2012-01-10T04:00:00Z,26.5545,-82.1715,2.279,34.82,1111122 
SCCF RECON,ioos:station:SCCF:51:1,2012-01-10T05:00:00Z,26.5545,-82.1715,2.34,34.82,1111122 
SCCF RECON,ioos:station:SCCF:51:1,2012-01-10T06:00:00Z,26.5545,-82.1715,2.35,34.8,1111122 
SCCF RECON,ioos:station:SCCF:51:1,2012-01-10T07:00:00Z,26.5545,-82.1715,2.28,34.77,1111122 
SCCF RECON,ioos:station:SCCF:51:1,2012-01-10T08:00:00Z,26.5545,-82.1715,2.18,34.61,1111122 
SCCF RECON,ioos:station:SCCF:51:1,2012-01-10T09:00:00Z,26.5545,-82.1715,2.04,34.32,1111122 
SCCF RECON,ioos:station:SCCF:51:1,2012-01-10T10:00:00Z,26.5545,-82.1715,1.91,34.17,1111122 
SCCF RECON,ioos:station:SCCF:51:1,2012-01-10T11:00:00Z,26.5545,-82.1715,1.77,34.13,1111122 
SCCF RECON,ioos:station:SCCF:51:1,2012-01-10T12:00:00Z,26.5545,-82.1715,1.65,33.9,1111122 
SCCF RECON,ioos:station:SCCF:51:1,2012-01-10T13:00:00Z,26.5545,-82.1715,1.55,33.95,1111122 
SCCF RECON,ioos:station:SCCF:51:1,2012-01-10T14:00:00Z,26.5545,-82.1715,1.54,33.95,1111122 
SCCF RECON,ioos:station:SCCF:51:1,2012-01-10T15:00:00Z,26.5545,-82.1715,1.635,34.01,1111122 
SCCF RECON,ioos:station:SCCF:51:1,2012-01-10T16:00:00Z,26.5545,-82.1715,1.77,34.06,1111122 
SCCF RECON,ioos:station:SCCF:51:1,2012-01-10T17:00:00Z,26.5545,-82.1715,1.913,34.51,1111122 
SCCF RECON,ioos:station:SCCF:51:1,2012-01-10T18:00:00Z,26.5545,-82.1715,2.011,34.3,1111122 
SCCF RECON,ioos:station:SCCF:51:1,2012-01-10T19:00:00Z,26.5545,-82.1715,2.05,34.49,1111122 
SCCF RECON,ioos:station:SCCF:51:1,2012-01-10T20:00:00Z,26.5545,-82.1715,2.037,34.64,1111122 
SCCF RECON,ioos:station:SCCF:51:1,2012-01-10T21:00:00Z,26.5545,-82.1715,1.98,34.46,1111122 
SCCF RECON,ioos:station:SCCF:51:1,2012-01-10T22:00:00Z,26.5545,-82.1715,1.928,34.16,1111122 
SCCF RECON,ioos:station:SCCF:51:1,2012-01-10T23:00:00Z,26.5545,-82.1715,1.885,34.15,1111122 
SCCF RECON,ioos:station:SCCF:51:1,2012-01-11T00:00:00Z,26.5545,-82.1715,1.86,34.3,1111122 
SCCF RECON,ioos:station:SCCF:51:1,2012-01-11T01:00:00Z,26.5545,-82.1715,1.9,34.29,1111122 
SCCF RECON,ioos:station:SCCF:51:1,2012-01-11T02:00:00Z,26.5545,-82.1715,1.975,34.09,1111122 
SCCF RECON,ioos:station:SCCF:51:1,2012-01-11T03:00:00Z,26.5545,-82.1715,2.06,34.37,1111122 
SCCF RECON,ioos:station:SCCF:51:1,2012-01-11T04:00:00Z,26.5545,-82.1715,2.18,34.77,1111122 
SCCF RECON,ioos:station:SCCF:51:1,2012-01-11T05:00:00Z,26.5545,-82.1715,2.29,34.76,1111122 
SCCF RECON,ioos:station:SCCF:51:1,2012-01-11T06:00:00Z,26.5545,-82.1715,2.33,34.7,1111122 
SCCF RECON,ioos:station:SCCF:51:1,2012-01-11T07:00:00Z,26.5545,-82.1715,2.302,34.85,1111122 
SCCF RECON,ioos:station:SCCF:51:1,2012-01-11T08:00:00Z,26.5545,-82.1715,2.222,34.61,1111122 
SCCF RECON,ioos:station:SCCF:51:1,2012-01-11T09:00:00Z,26.5545,-82.1715,2.109,34.26,1111122 
SCCF RECON,ioos:station:SCCF:51:1,2012-01-11T10:00:00Z,26.5545,-82.1715,1.99,34.02,1111122 
SCCF RECON,ioos:station:SCCF:51:1,2012-01-11T11:00:00Z,26.5545,-82.1715,1.86,33.7,1111122 
SCCF RECON,ioos:station:SCCF:51:1,2012-01-11T12:00:00Z,26.5545,-82.1715,1.7,33.25,1111122 
SCCF RECON,ioos:station:SCCF:51:1,2012-01-11T13:00:00Z,26.5545,-82.1715,1.644,33.13,1111122 
SCCF RECON,ioos:station:SCCF:51:1,2012-01-11T14:00:00Z,26.5545,-82.1715,1.711,33.32,1111122 
SCCF RECON,ioos:station:SCCF:51:1,2012-01-11T15:00:00Z,26.5545,-82.1715,1.805,33.46,1111122 
SCCF RECON,ioos:station:SCCF:51:1,2012-01-11T16:00:00Z,26.5545,-82.1715,1.965,33.64,1111122 
SCCF RECON,ioos:station:SCCF:51:1,2012-01-11T17:00:00Z,26.5545,-82.1715,2.136,34.33,1111122 